Meteo orario Goiânia

Oggi, 16 Aprile, Venerdi

Tempo Temperatura Precipitazioni Vento Pressione Umidità
00:00 +21°C° 0 mm 1 m/s 694 mm Hg 74%
01:00 +21°C° 0 mm 1 m/s 694 mm Hg 75%
02:00 +20°C° 0 mm 1 m/s 693 mm Hg 75%
03:00 +20°C° 0 mm 1 m/s 693 mm Hg 76%
04:00 +20°C° 0 mm 1 m/s 693 mm Hg 77%
05:00 +20°C° 0 mm 1 m/s 693 mm Hg 78%
06:00 +19°C° 0 mm 1 m/s 693 mm Hg 79%
07:00 +20°C° 0 mm 2 m/s 694 mm Hg 73%
08:00 +23°C° 0 mm 2 m/s 695 mm Hg 67%
09:00 +25°C° 0 mm 2 m/s 695 mm Hg 61%
10:00 +27°C° 0 mm 2 m/s 695 mm Hg 55%
11:00 +29°C° 0 mm 2 m/s 695 mm Hg 49%
12:00 +30°C° 0 mm 2 m/s 695 mm Hg 44%
13:00 +30°C° 0 mm 1 m/s 695 mm Hg 43%
14:00 +31°C° 0 mm 1 m/s 694 mm Hg 42%
15:00 +31°C° 0 mm 1 m/s 693 mm Hg 41%
16:00 +29°C° 0 mm 1 m/s 693 mm Hg 47%
17:00 +28°C° 0 mm 1 m/s 693 mm Hg 53%
18:00 +26°C° 0 mm 1 m/s 693 mm Hg 58%
19:00 +25°C° 0 mm 1 m/s 693 mm Hg 61%
20:00 +25°C° 0 mm 1 m/s 693 mm Hg 63%
21:00 +24°C° 0 mm 1 m/s 693 mm Hg 65%
22:00 +23°C° 0 mm 1 m/s 693 mm Hg 66%
23:00 +23°C° 0 mm 1 m/s 694 mm Hg 67%

Domani, 17 Aprile, Sabato

Tempo Temperatura Precipitazioni Vento Pressione Umidità
00:00 +23°C° 0 mm 1 m/s 694 mm Hg 68%
01:00 +22°C° 0 mm 1 m/s 693 mm Hg 70%
02:00 +22°C° 0 mm 1 m/s 693 mm Hg 72%
03:00 +19°C° 0 mm 0 m/s 693 mm Hg 74%
04:00 +19°C° 0 mm 0 m/s 693 mm Hg 75%
05:00 +18°C° 0 mm 0 m/s 693 mm Hg 77%
06:00 +18°C° 0 mm 0 m/s 693 mm Hg 78%
07:00 +22°C° 0 mm 1 m/s 694 mm Hg 72%
08:00 +24°C° 0 mm 1 m/s 695 mm Hg 66%
09:00 +25°C° 0 mm 2 m/s 695 mm Hg 60%
10:00 +27°C° 0 mm 2 m/s 695 mm Hg 54%
11:00 +29°C° 0 mm 2 m/s 695 mm Hg 48%
12:00 +30°C° 0 mm 2 m/s 695 mm Hg 42%
13:00 +31°C° 0 mm 1 m/s 694 mm Hg 42%
14:00 +31°C° 0 mm 1 m/s 694 mm Hg 41%
15:00 +31°C° 0 mm 1 m/s 693 mm Hg 40%
16:00 +30°C° 0 mm 1 m/s 693 mm Hg 46%
17:00 +28°C° 0 mm 1 m/s 692 mm Hg 53%
18:00 +26°C° 0 mm 1 m/s 692 mm Hg 59%
19:00 +26°C° 0.1 mm 1 m/s 692 mm Hg 62%
20:00 +25°C° 0.1 mm 1 m/s 693 mm Hg 65%
21:00 +22°C° 0.1 mm 0 m/s 693 mm Hg 68%
22:00 +22°C° 0.2 mm 0 m/s 693 mm Hg 71%
23:00 +21°C° 0.2 mm 0 m/s 693 mm Hg 74%

Dopodomani, 18 Aprile, Domenica

Tempo Temperatura Precipitazioni Vento Pressione Umidità
00:00 +20°C° 0.2 mm 0 m/s 693 mm Hg 77%
01:00 +20°C° 0.2 mm 0 m/s 693 mm Hg 79%
02:00 +20°C° 0.2 mm 0 m/s 693 mm Hg 81%
03:00 +19°C° 0.2 mm 0 m/s 693 mm Hg 83%
04:00 +19°C° 0.1 mm 0 m/s 693 mm Hg 84%
05:00 +18°C° 0.1 mm 0 m/s 693 mm Hg 86%
06:00 +18°C° 0.1 mm 0 m/s 693 mm Hg 87%
07:00 +20°C° 0.1 mm 0 m/s 694 mm Hg 82%
08:00 +23°C° 0.1 mm 1 m/s 694 mm Hg 78%
09:00 +25°C° 0.1 mm 1 m/s 695 mm Hg 73%
10:00 +27°C° 0 mm 1 m/s 695 mm Hg 64%
11:00 +29°C° 0 mm 1 m/s 695 mm Hg 55%
12:00 +31°C° 0 mm 1 m/s 695 mm Hg 47%
13:00 +31°C° 0 mm 1 m/s 694 mm Hg 46%
14:00 +31°C° 0 mm 1 m/s 693 mm Hg 44%
15:00 +31°C° 0 mm 1 m/s 692 mm Hg 43%
16:00 +30°C° 0 mm 1 m/s 692 mm Hg 50%
17:00 +28°C° 0 mm 1 m/s 692 mm Hg 56%
18:00 +26°C° 0 mm 1 m/s 692 mm Hg 63%
19:00 +25°C° 0.2 mm 1 m/s 692 mm Hg 67%
20:00 +25°C° 0.2 mm 1 m/s 692 mm Hg 71%
21:00 +22°C° 0.2 mm 0 m/s 693 mm Hg 75%
22:00 +23°C° 0.8 mm 1 m/s 693 mm Hg 81%
23:00 +22°C° 0.8 mm 1 m/s 693 mm Hg 88%

19 Aprile, Lunedi

Tempo Temperatura Precipitazioni Vento Pressione Umidità
00:00 +21°C° 0.8 mm 1 m/s 693 mm Hg 94%
01:00 +21°C° 0.4 mm 1 m/s 693 mm Hg 94%
02:00 +21°C° 0.4 mm 1 m/s 693 mm Hg 94%
03:00 +21°C° 0.4 mm 1 m/s 693 mm Hg 94%
04:00 +21°C° 0.4 mm 1 m/s 693 mm Hg 94%
05:00 +21°C° 0.4 mm 1 m/s 693 mm Hg 94%
06:00 +21°C° 0.4 mm 1 m/s 693 mm Hg 94%
07:00 +21°C° 0 mm 1 m/s 694 mm Hg 91%
08:00 +22°C° 0 mm 1 m/s 694 mm Hg 88%
09:00 +23°C° 0 mm 1 m/s 694 mm Hg 84%
10:00 +25°C° 0 mm 1 m/s 694 mm Hg 75%
11:00 +27°C° 0 mm 1 m/s 694 mm Hg 66%
12:00 +27°C° 0 mm 0 m/s 694 mm Hg 57%
13:00 +29°C° 0.5 mm 1 m/s 694 mm Hg 58%
14:00 +29°C° 0.5 mm 1 m/s 693 mm Hg 58%
15:00 +29°C° 0.5 mm 1 m/s 692 mm Hg 59%
16:00 +27°C° 0.9 mm 1 m/s 692 mm Hg 67%
17:00 +25°C° 0.9 mm 1 m/s 692 mm Hg 75%
18:00 +23°C° 0.9 mm 2 m/s 692 mm Hg 83%
19:00 +23°C° 1.3 mm 1 m/s 692 mm Hg 86%
20:00 +20°C° 1.3 mm 0 m/s 693 mm Hg 89%
21:00 +19°C° 1.3 mm 0 m/s 693 mm Hg 92%
22:00 +19°C° 0.6 mm 0 m/s 693 mm Hg 91%
23:00 +19°C° 0.6 mm 0 m/s 693 mm Hg 91%

20 Aprile, Martedi

Tempo Temperatura Precipitazioni Vento Pressione Umidità
00:00 +21°C° 0.6 mm 1 m/s 693 mm Hg 90%
01:00 +19°C° 0.7 mm 0 m/s 693 mm Hg 91%
02:00 +19°C° 0.7 mm 0 m/s 693 mm Hg 91%
03:00 +19°C° 0.7 mm 0 m/s 692 mm Hg 91%
04:00 +19°C° 0.1 mm 0 m/s 693 mm Hg 92%
05:00 +21°C° 0.1 mm 1 m/s 693 mm Hg 92%
06:00 +21°C° 0.1 mm 1 m/s 693 mm Hg 93%
07:00 +21°C° 0.2 mm 1 m/s 693 mm Hg 90%
08:00 +22°C° 0.2 mm 1 m/s 694 mm Hg 87%
09:00 +23°C° 0.2 mm 2 m/s 694 mm Hg 84%
10:00 +24°C° 1 mm 2 m/s 694 mm Hg 83%
11:00 +24°C° 1 mm 2 m/s 694 mm Hg 81%
12:00 +25°C° 1 mm 2 m/s 694 mm Hg 80%
13:00 +25°C° 0.7 mm 2 m/s 694 mm Hg 78%
14:00 +25°C° 0.7 mm 2 m/s 693 mm Hg 77%
15:00 +26°C° 0.7 mm 1 m/s 692 mm Hg 75%
16:00 +24°C° 1.4 mm 1 m/s 692 mm Hg 80%
17:00 +23°C° 1.4 mm 1 m/s 692 mm Hg 85%
18:00 +22°C° 1.4 mm 1 m/s 692 mm Hg 91%
19:00 +22°C° 2.1 mm 1 m/s 693 mm Hg 91%
20:00 +21°C° 2.1 mm 1 m/s 693 mm Hg 92%
21:00 +21°C° 2.1 mm 1 m/s 693 mm Hg 93%
22:00 +21°C° 0.3 mm 1 m/s 693 mm Hg 94%
23:00 +19°C° 0.3 mm 2 m/s 693 mm Hg 95%

21 Aprile, Mercoledi

Tempo Temperatura Precipitazioni Vento Pressione Umidità
00:00 +19°C° 0.3 mm 2 m/s 693 mm Hg 95%
01:00 +20°C° 0 mm 1 m/s 693 mm Hg 95%
02:00 +20°C° 0 mm 1 m/s 693 mm Hg 95%
03:00 +20°C° 0 mm 1 m/s 692 mm Hg 95%
04:00 +20°C° 0 mm 1 m/s 693 mm Hg 95%
05:00 +19°C° 0 mm 1 m/s 693 mm Hg 95%
06:00 +19°C° 0 mm 1 m/s 693 mm Hg 95%
07:00 +20°C° 0.1 mm 1 m/s 693 mm Hg 92%
08:00 +22°C° 0.1 mm 1 m/s 694 mm Hg 88%
09:00 +23°C° 0.1 mm 1 m/s 695 mm Hg 85%
10:00 +24°C° 0.7 mm 1 m/s 695 mm Hg 79%
11:00 +25°C° 0.7 mm 1 m/s 695 mm Hg 74%
12:00 +26°C° 0.7 mm 1 m/s 695 mm Hg 69%
13:00 +27°C° 0.2 mm 1 m/s 694 mm Hg 66%
14:00 +27°C° 0.2 mm 1 m/s 693 mm Hg 64%
15:00 +28°C° 0.2 mm 1 m/s 693 mm Hg 61%
16:00 +26°C° 0.3 mm 1 m/s 692 mm Hg 67%
17:00 +25°C° 0.3 mm 1 m/s 692 mm Hg 74%
18:00 +21°C° 0.3 mm 0 m/s 692 mm Hg 80%
19:00 +22°C° 0.1 mm 1 m/s 693 mm Hg 84%
20:00 +22°C° 0.1 mm 1 m/s 693 mm Hg 87%
21:00 +21°C° 0.1 mm 1 m/s 693 mm Hg 90%
22:00 +21°C° 0 mm 1 m/s 693 mm Hg 91%
23:00 +20°C° 0 mm 1 m/s 694 mm Hg 91%
Mostrare altro

Abbiamo bisogno del tuo consenso

Meteoprog e i nostri fornitori di servizi possono memorizzare e accedere a dati personali come cookie, identificatori di dispositivi o altre tecnologie simili sul tuo dispositivo e possono elaborare tali dati per personalizzare i contenuti e gli annunci, nonché fornire funzionalità dei social media e analizzarne il traffico.

  • Archiviare e/o accedere alle informazioni sul tuo dispositivo

    Cookie, identificatori di dispositivi o altre informazioni possono essere memorizzati o resi accessibili sul tuo dispositivo per le finalità sopra indicate.

  • Annunci e contenuti personalizzati, misurazione di annunci e contenuti, approfondimenti sul pubblico e sviluppo di prodotti

    Gli annunci e i contenuti possono essere personalizzati in base a un profilo. È possibile aggiungere più dati per personalizzare meglio annunci e contenuti. È possibile misurare il rendimento degli annunci e dei contenuti. È possibile ricavare informazioni sul pubblico che ha visto gli annunci e i contenuti. Tali dati possono essere utilizzati per sviluppare o migliorare l'esperienza, i sistemi e il software dell'utente.

Cliccando su “Accetto”, acconsenti all'uso di cookie, identificatori di dispositivo, web beacon o altre tecnologie simili. Puoi modificare le impostazioni nel browser del tuo dispositivo.

Per determinati scopi, è possibile fare affidamento su interessi legali, piuttosto che sul consenso. Puoi approfondire questo argomento consultando la nostra Informativa sulla privacy e sui cookie.